Tracking 18186 objects as of 29-March-2017
HD Live streaming from Space Station
objects crossing your sky now

SL-16 DEB

Track SL-16 DEB now!
10-day predictions


NORAD ID: 36031
Int'l Code: 1996-051N
Perigee: 751.2 km
Apogee: 780.1 km
Inclination: 70.9 °
Period: 100.0 minutes
Semi major axis: 7136 km
RCS: 0.0057 m2 (small)
Launch date: September 4, 1996
Source: Commonwealth of Independent States (former USSR) (CIS)
Launch site: TYURATAM MISSILE AND SPACE COMPLEX (TTMTR)

Note: This is SATELLITE DEBRIS
Your satellite tracking list
Your tracking list is empty





NASA's NSSDC Master Catalog

Two Line Element Set (TLE):
1 36031U 96051N   17087.07034940 +.00003592 +00000-0 +11322-2 0  9994
2 36031 070.8532 116.9015 0020238 234.0719 156.0823 14.40882988387526
Source of the keplerian elements: AFSPC